TimeCST,TemperatureF,Dew PointF,Humidity,Sea Level PressureIn,VisibilityMPH,Wind Direction,Wind SpeedMPH,Gust SpeedMPH,PrecipitationIn,Events,Conditions,WindDirDegrees,DateUTC
12:53 AM,-26.0,-31.0,77,30.56,10.0,Calm,Calm,-,N/A,,Clear,0,2014-02-11 06:53:00
1:53 AM,-22.0,-27.0,77,30.54,10.0,SSE,3.5,-,N/A,,Scattered Clouds,150,2014-02-11 07:53:00
2:31 AM,-22.0,-29.0,70,30.40,10.0,Calm,Calm,-,N/A,,Mostly Cloudy,0,2014-02-11 08:31:00
2:53 AM,-23.1,-29.0,74,30.53,10.0,East,3.5,-,N/A,,Partly Cloudy,80,2014-02-11 08:53:00
3:53 AM,-22.0,-27.9,74,30.52,10.0,East,3.5,-,N/A,,Clear,100,2014-02-11 09:53:00
4:53 AM,-20.9,-27.0,73,30.51,10.0,Calm,Calm,-,N/A,,Clear,0,2014-02-11 10:53:00
5:53 AM,-20.0,-26.0,74,30.50,7.0,East,3.5,-,N/A,,Clear,100,2014-02-11 11:53:00
6:07 AM,-20.0,-26.0,74,30.36,3.0,ESE,3.5,-,N/A,,Haze,120,2014-02-11 12:07:00
6:53 AM,-18.0,-24.0,74,30.48,10.0,SE,3.5,-,N/A,,Overcast,130,2014-02-11 12:53:00
7:53 AM,-2.9,-9.0,75,30.47,10.0,South,12.7,-,N/A,,Overcast,170,2014-02-11 13:53:00
8:53 AM,-2.0,-7.1,79,30.45,10.0,SSE,12.7,-,N/A,,Mostly Cloudy,160,2014-02-11 14:53:00
9:53 AM,1.9,-4.0,76,30.44,10.0,South,13.8,-,N/A,,Clear,170,2014-02-11 15:53:00
10:53 AM,8.1,1.0,73,30.42,10.0,South,18.4,-,N/A,,Clear,170,2014-02-11 16:53:00
11:53 AM,10.9,3.0,70,30.37,10.0,South,19.6,29.9,N/A,,Clear,180,2014-02-11 17:53:00
12:50 PM,12.2,5.0,73,30.21,10.0,South,20.7,-,N/A,,Overcast,180,2014-02-11 18:50:00
12:53 PM,14.0,5.0,67,30.33,10.0,South,20.7,-,N/A,,Overcast,180,2014-02-11 18:53:00
1:53 PM,16.0,7.0,68,30.26,10.0,South,23.0,-,N/A,,Overcast,170,2014-02-11 19:53:00
2:53 PM,17.1,8.1,68,30.23,10.0,South,21.9,-,N/A,,Overcast,180,2014-02-11 20:53:00
3:53 PM,17.1,8.1,68,30.21,10.0,South,20.7,29.9,N/A,,Overcast,170,2014-02-11 21:53:00
4:53 PM,17.1,9.0,71,30.18,10.0,South,21.9,-,N/A,,Overcast,180,2014-02-11 22:53:00
5:53 PM,17.1,9.0,71,30.14,10.0,South,24.2,-,N/A,,Overcast,170,2014-02-11 23:53:00
6:53 PM,17.1,9.0,71,30.15,10.0,South,17.3,-,N/A,,Overcast,180,2014-02-12 00:53:00
7:53 PM,17.1,9.0,71,30.12,10.0,South,15.0,-,N/A,,Overcast,180,2014-02-12 01:53:00
8:53 PM,17.1,10.0,74,30.12,10.0,South,17.3,-,N/A,,Overcast,190,2014-02-12 02:53:00
9:17 PM,17.1,10.0,74,30.02,10.0,South,18.4,25.3,N/A,,Overcast,190,2014-02-12 03:17:00
9:53 PM,17.1,9.0,71,30.11,10.0,SSW,18.4,27.6,N/A,,Overcast,200,2014-02-12 03:53:00
10:53 PM,16.0,9.0,74,30.09,10.0,South,20.7,-,N/A,,Overcast,190,2014-02-12 04:53:00
11:53 PM,17.1,8.1,68,30.07,10.0,South,17.3,25.3,N/A,,Overcast,190,2014-02-12 05:53:00